Hourly Data Report for September 17, 2017

All times are specified in Local Standard Time (LST). Add 1 hour to adjust for Daylight Saving Time where and when it is observed.

EDMUNDSTON
NEW BRUNSWICK

47°25'00.000" N
68°19'28.040" W
154.20 m
8101303
71590
ERM

Download Data

Hourly Data (September 2017)
Hourly Data Report for September 17, 2017
Temp Definition
°C
Dew Point Temp Definition
°C
Rel Hum Definition
%
Wind Dir Definition
10's deg

Wind Spd Definition
km/h
Visibility Definition
km
Stn Press Definition
kPa
Hmdx Definition


Wind Chill Definition


Weather Definition


TIME
00:00 13.8 11.8 88   0   100.31     LegendNANA
01:00 13.4 11.9 90 34 3   100.29     LegendNANA
02:00 13.5 11.8 90 15 2   100.24     LegendNANA
03:00 13.5 11.9 90 34 3   100.22     LegendNANA
04:00 13.4 11.8 90   0   100.19     LegendNANA
05:00 13.6 12.0 90 0 1   100.19     LegendNANA
06:00 13.6 10.7 82 14 3   100.25     LegendNANA
07:00 13.4 10.8 84 12 3   100.25     LegendNANA
08:00 13.9 11.2 84 13 3   100.24     LegendNANA
09:00 15.8 12.0 78 14 5   100.23     LegendNANA
10:00 17.4 12.8 75 15 5   100.21     LegendNANA
11:00 19.4 13.8 70 14 5   100.19     LegendNANA
12:00 22.0 15.2 66 22 3   100.15 26   LegendNANA
13:00 23.1 15.5 62 18 4   100.10 27   LegendNANA
14:00 23.7 16.2 63   0   100.03 28   LegendNANA
15:00 25.7 17.0 59 13 3   99.98 31   LegendNANA
16:00 26.1 17.5 59 14 4   99.98 32   LegendNANA
17:00 24.8 17.7 64 29 9   99.99 31   LegendNANA
18:00 21.2 16.5 75 29 7   100.06 26   LegendNANA
19:00 18.8 15.3 80 30 8   100.13     LegendNANA
20:00 17.1 14.3 83 26 4   100.18     LegendNANA
21:00 16.0 13.6 86   0   100.22     LegendNANA
22:00 14.9 12.6 86   0   100.23     LegendNANA
23:00 13.6 11.9 90 11 4   100.27     LegendNANA

Notes on Data Quality.

Legend

  • E = Estimated
  • M = Missing
  • NA = Not Available
  • ‡ = Partner data that is not subject to review by the National Climate Archives
Date modified: